TimeCST,TemperatureF,Dew PointF,Humidity,Sea Level PressureIn,VisibilityMPH,Wind Direction,Wind SpeedMPH,Gust SpeedMPH,PrecipitationIn,Events,Conditions,WindDirDegrees,DateUTC
12:51 AM,57.9,55.9,93,29.94,8.0,SE,6.9,-,N/A,,Overcast,130,2014-03-08 06:51:00
1:51 AM,59.0,57.0,93,29.93,9.0,SE,5.8,-,N/A,,Overcast,130,2014-03-08 07:51:00
2:21 AM,60.1,57.0,90,29.92,10.0,SE,5.8,-,N/A,,Overcast,130,2014-03-08 08:21:00
2:51 AM,60.1,57.0,90,29.91,10.0,SE,6.9,-,N/A,,Overcast,130,2014-03-08 08:51:00
3:51 AM,61.0,57.9,90,29.91,10.0,SE,8.1,-,N/A,,Overcast,140,2014-03-08 09:51:00
4:51 AM,61.0,57.9,90,29.91,10.0,SE,8.1,-,N/A,,Overcast,130,2014-03-08 10:51:00
5:51 AM,62.1,59.0,90,29.94,10.0,SE,6.9,-,N/A,,Overcast,130,2014-03-08 11:51:00
6:51 AM,62.1,59.0,90,29.94,10.0,ESE,8.1,-,N/A,,Overcast,120,2014-03-08 12:51:00
7:00 AM,62.1,59.0,90,29.94,9.0,ESE,6.9,-,N/A,,Overcast,120,2014-03-08 13:00:00
7:51 AM,64.0,60.1,87,29.96,9.0,ESE,8.1,-,N/A,,Overcast,120,2014-03-08 13:51:00
8:51 AM,64.9,61.0,87,29.98,9.0,ESE,8.1,-,N/A,,Overcast,120,2014-03-08 14:51:00
9:51 AM,66.0,61.0,84,30.01,10.0,SE,11.5,-,N/A,,Overcast,130,2014-03-08 15:51:00
10:51 AM,66.9,62.1,84,30.04,10.0,ENE,8.1,-,N/A,,Overcast,70,2014-03-08 16:51:00
11:51 AM,66.0,63.0,90,30.03,4.0,East,10.4,-,0.01,Rain,Light Rain,90,2014-03-08 17:51:00
12:51 PM,66.9,63.0,87,30.01,10.0,East,12.7,-,0.00,,Overcast,90,2014-03-08 18:51:00
1:51 PM,69.1,63.0,81,29.99,10.0,ESE,15.0,-,0.00,,Overcast,120,2014-03-08 19:51:00
2:51 PM,68.0,62.1,81,29.98,10.0,East,13.8,-,N/A,,Overcast,100,2014-03-08 20:51:00
3:37 PM,66.9,63.0,87,29.99,6.0,ESE,11.5,-,N/A,,Overcast,120,2014-03-08 21:37:00
3:51 PM,66.9,63.0,87,29.99,5.0,ESE,13.8,-,0.00,Rain,Light Rain,120,2014-03-08 21:51:00
4:51 PM,66.0,63.0,90,29.99,9.0,East,11.5,-,0.01,,Overcast,100,2014-03-08 22:51:00
5:06 PM,66.0,63.0,90,30.00,6.0,East,9.2,-,0.00,Rain,Light Rain,100,2014-03-08 23:06:00
5:51 PM,66.0,63.0,90,30.00,10.0,East,11.5,-,0.00,,Overcast,100,2014-03-08 23:51:00
6:25 PM,66.0,62.1,87,30.02,10.0,ESE,10.4,-,N/A,,Overcast,110,2014-03-09 00:25:00
6:51 PM,64.9,62.1,90,30.04,10.0,ESE,6.9,-,N/A,,Overcast,120,2014-03-09 00:51:00
7:26 PM,62.1,59.0,90,30.08,9.0,NNW,12.7,24.2,0.00,Rain,Light Rain,340,2014-03-09 01:26:00
7:37 PM,57.9,55.9,93,30.09,4.0,North,19.6,31.1,0.03,Rain,Heavy Rain,350,2014-03-09 01:37:00
7:51 PM,55.0,53.1,93,30.10,7.0,North,23.0,32.2,0.04,Rain,Light Rain,360,2014-03-09 01:51:00
7:55 PM,54.0,53.1,97,30.10,4.0,North,23.0,31.1,0.01,Rain,Rain,360,2014-03-09 01:55:00
8:03 PM,54.0,52.0,93,30.11,4.0,North,19.6,28.8,0.01,Rain,Rain,360,2014-03-09 02:03:00
8:14 PM,54.0,52.0,93,30.11,4.0,North,18.4,26.5,0.02,Rain,Rain,10,2014-03-09 02:14:00
8:41 PM,52.0,51.1,97,30.14,4.0,North,17.3,27.6,0.04,Rain,Light Rain,10,2014-03-09 02:41:00
8:51 PM,52.0,50.0,93,30.14,3.0,North,16.1,27.6,0.05,Rain,Light Rain,10,2014-03-09 02:51:00
9:51 PM,50.0,48.9,96,30.17,3.0,North,15.0,-,0.00,,Overcast,360,2014-03-09 03:51:00
10:40 PM,50.0,48.9,96,30.18,2.5,North,17.3,23.0,N/A,,Overcast,360,2014-03-09 04:40:00
10:51 PM,50.0,48.9,96,30.18,2.5,North,15.0,21.9,0.00,Rain,Light Rain,350,2014-03-09 04:51:00
11:15 PM,50.0,48.0,93,30.18,3.0,North,18.4,-,0.00,Rain,Light Rain,360,2014-03-09 05:15:00
11:31 PM,50.0,48.0,93,30.19,2.5,North,16.1,21.9,0.00,Rain,Light Rain,360,2014-03-09 05:31:00
11:51 PM,48.9,48.0,97,30.19,3.0,North,16.1,23.0,0.00,Rain,Light Rain,360,2014-03-09 05:51:00